Location: Red Rock Farm
(35.2100°N, 97.2200°W)
Time: 06:58:37
(UTC-05:00)

ISS - All Passes

Search period start: 24 October 2014 00:00
Search period end: 02 November 2014 23:00
Orbit: 413 x 416 km, 51.6° (Epoch: 24 October)

Date Brightness Start Highest point End Pass type
(mag) Time Alt. Az. Time Alt. Az. Time Alt. Az.
24 Oct - 12:08:19 10° SSE 12:10:05 14° SE 12:11:52 10° E daylight
24 Oct - 13:43:15 10° WSW 13:46:28 45° NW 13:49:42 10° NE daylight
24 Oct - 20:14:24 10° NW 20:17:38 46° NE 20:20:50 10° ESE visible
24 Oct - 21:52:13 10° W 21:54:00 14° SW 21:55:47 10° SSW visible
25 Oct - 12:53:57 10° SW 12:57:16 90° WNW 13:00:37 10° NE daylight
25 Oct - 14:32:47 10° NW 14:34:23 13° NNW 14:35:59 10° N daylight
25 Oct - 19:25:28 10° NNW 19:28:21 26° NE 19:31:13 10° E visible
25 Oct - 21:02:08 10° WNW 21:04:59 26° SW 21:07:48 10° S visible
26 Oct - 12:04:57 10° SSW 12:08:07 43° SE 12:11:18 10° ENE daylight
26 Oct - 13:42:29 10° WNW 13:44:56 19° NNW 13:47:24 10° NNE daylight
26 Oct - 18:36:40 10° NNW 18:38:57 17° NNE 18:41:14 10° ENE daylight
26 Oct - 20:12:36 10° WNW 20:15:51 52° SW 20:19:05 10° SSE visible
27 Oct - 11:16:21 10° S 11:18:59 22° SE 11:21:38 10° ENE daylight
27 Oct - 12:52:34 10° W 12:55:32 30° NW 12:58:31 10° NNE daylight
27 Oct - 17:48:10 10° N 17:49:27 12° NNE 17:50:44 10° NE daylight
27 Oct - 19:23:17 10° NW 19:26:37 76° NE 19:29:56 10° SE visible
28 Oct - 10:28:40 10° SSE 10:29:52 12° SE 10:31:04 10° ESE daylight
28 Oct - 12:02:55 10° WSW 12:06:10 54° NW 12:09:26 10° NE daylight
28 Oct - 18:34:07 10° NNW 18:37:16 39° NE 18:40:25 10° ESE daylight
28 Oct - 20:11:33 10° W 20:13:42 16° SW 20:15:51 10° S visible
29 Oct - 11:13:32 10° SW 11:16:50 75° SE 11:20:09 10° NE daylight
29 Oct - 12:51:59 10° WNW 12:53:51 14° NNW 12:55:43 10° N daylight
29 Oct - 17:45:04 10° NNW 17:47:49 23° NNE 17:50:33 10° E daylight
29 Oct - 19:21:31 10° WNW 19:24:30 31° SW 19:27:28 10° SSE visible
30 Oct - 10:24:28 10° SSW 10:27:32 36° SE 10:30:36 10° ENE daylight
30 Oct - 12:01:40 10° W 12:04:16 21° NNW 12:06:54 10° NNE daylight
30 Oct - 16:56:10 10° N 16:58:14 15° NNE 17:00:18 10° ENE daylight
30 Oct - 18:31:54 10° NW 18:35:12 64° SW 18:38:29 10° SE daylight
31 Oct - 09:35:52 10° S 09:38:15 19° SE 09:40:38 10° E daylight
31 Oct - 11:11:39 10° WSW 11:14:44 34° NW 11:17:48 10° NNE daylight
31 Oct - 16:07:47 10° N 16:08:33 11° NNE 16:09:19 10° NE daylight
31 Oct - 17:42:29 10° NW 17:45:47 62° NE 17:49:04 10° ESE daylight
01 Nov - 10:21:56 10° SW 10:25:13 66° NW 10:28:31 10° NE daylight
01 Nov - 12:01:31 10° NW 12:02:26 11° NNW 12:03:20 10° N daylight
01 Nov - 16:53:12 10° NNW 16:56:15 33° NE 16:59:18 10° ESE daylight
01 Nov - 18:30:17 10° W 18:32:45 19° SW 18:35:12 10° S daylight
02 Nov - 08:32:29 10° SW 08:35:44 61° SE 08:39:01 10° NE daylight
02 Nov - 10:10:33 10° WNW 10:12:40 16° NNW 10:14:47 10° N daylight
02 Nov - 15:04:02 10° NNW 15:06:37 20° NNE 15:09:11 10° E daylight
02 Nov - 16:40:16 10° WNW 16:43:22 38° SW 16:46:28 10° SSE daylight
